Hourly Data Report for October 17, 2014

All times are specified in Local Standard Time (LST). Add 1 hour to adjust for Daylight Saving Time where and when it is observed.

CAPE DORSET A
NUNAVUT

64°13'49.000" N
76°31'30.000" W
48.20 m
2400637
71366
YTE

Download Data

Hourly Data (October 2014)
Hourly Data Report for October 17, 2014
Temp Definition
°C
Dew Point Temp Definition
°C
Rel Hum Definition
%
Wind Dir Definition
10's deg

Wind Spd Definition
km/h
Visibility Definition
km
Stn Press Definition
kPa
Hmdx Definition


Wind Chill Definition


Weather Definition


TIME
00:00 Legend Double Dagger -1.9 -3.0 92 26 11 16.1 100.60   -6 LegendNANA
01:00 Legend Double Dagger -1.8 -2.3 97 29 13 16.1 100.67   -6 LegendNANA
02:00 Legend Double Dagger -1.7 -3.0 91 30 8 16.1 100.75   -5 LegendNANA
03:00 Legend Double Dagger -2.3 LegendMM LegendMM 8 13 4.8 100.83   -7 Snow
04:00 Legend Double Dagger -2.5 LegendMM LegendMM 3 4 16.1 100.93   -4 LegendNANA
05:00 Legend Double Dagger -3.2 -5.1 87 36 15 16.1 101.01   -8 LegendNANA
06:00 Legend Double Dagger -2.9 -4.2 91 5 9 16.1 101.06   -6 Snow
07:00 Legend Double Dagger -3.5 -4.3 94 5 8 16.1 101.15   -7 Snow
08:00 Legend Double Dagger -3.9 -4.9 93 2 8 16.1 101.23   -7 LegendNANA
09:00 Legend Double Dagger -3.8 -4.7 94 31 9 16.1 101.29   -8 Snow
10:00 Legend Double Dagger -4.0 -4.7 95 30 9 16.1 101.31   -8 Snow
11:00 Legend Double Dagger -3.8 -4.9 92 33 9 16.1 101.32   -8 LegendNANA
12:00 Legend Double Dagger -3.8 -5.4 89 34 13 16.1 101.35   -9 LegendNANA
13:00 Legend Double Dagger -3.5 -5.1 89 35 8 16.1 101.37   -7 Snow
14:00 Legend Double Dagger -3.4 -5.4 86 27 8 16.1 101.40   -7 LegendNANA
15:00 Legend Double Dagger -3.8 -5.8 86 29 11 16.1 101.41   -8 LegendNANA
16:00 Legend Double Dagger -4.3 -5.7 90 30 9 16.1 101.45   -8 LegendNANA
17:00 Legend Double Dagger -2.8 -4.5 88 31 11 16.1 101.46   -7 LegendNANA
18:00 Legend Double Dagger -2.6 -4.2 89 29 9 16.1 101.49   -6 Snow
19:00 Legend Double Dagger -2.8 -3.9 92 32 9 16.1 101.48   -6 LegendNANA
20:00 Legend Double Dagger -3.6 -4.9 91 2 13 16.1 101.45   -8 Snow
21:00 Legend Double Dagger -4.6 -5.3 95 31 18 16.1 101.44   -11 LegendNANA
22:00 Legend Double Dagger -4.9 -6.0 92 1 15 16.1 101.42   -10 LegendNANA
23:00 Legend Double Dagger -4.4 -5.7 91 34 17 16.1 101.40   -10 LegendNANA

Notes on Data Quality.

Legend

  • E = Estimated
  • M = Missing
  • NA = Not Available
  • ‡ = Partner data that is not subject to review by the National Climate Archives
Date modified: